User: anonymous   Login
Location: Sofia
(42.6977°N, 23.3219°E)
Time: 00:13:16
(UTC+02:00)
Language:

BEESAT - Orbit

View from above orbital plane
View from above orbital plane
View from above satellite
View from above satellite

Ground track
Ground track

The orbit data is extracted from the following two-line orbital elements,

1 35933U 09051C   24056.93982691  .00001529  00000-0  34048-3 0  9991
2 35933  98.4810 299.0023 0005057 329.3331  30.7571 14.58390672766266
Epoch (UTC): 25 February 2024 22:33:21
Eccentricity: 0.0005057
inclination: 98.4810°
perigee height: 695 km
apogee height: 702 km
right ascension of ascending node: 299.0023°
argument of perigee: 329.3331°
revolutions per day: 14.58390672
mean anomaly at epoch: 30.7571°
orbit number at epoch: 76626

The dashed part of the orbit path shows where the satellite is in the earth's shadow,  

DLR